Total_Precipitation_Accumulation
2.22 2.29 2.15 2.10 2.03 2.02 2.03 1.97 1.96 1.97 1.95 1.96 2.10 2.16 2.14 2.18 2.28 2.40 2.22 2.30 2.31 2.34 2.35 2.50 2.57 2.78 2.81 2.76 2.90 2.94 2.99 3.04 2.65 2.12 2.13 2.27 2.31 2.18 2.16 2.08 2.03 2.04 1.95
1.96 2.01 1.98 1.98 1.97 1.88 1.83 1.89 1.96 1.88 1.80 1.85 1.93 1.91 1.83 1.96 2.15 2.18 2.08 2.18 2.26 2.25 2.43 2.68 2.63 2.75 2.85 2.93 3.11 2.91 2.97 3.28 3.12 2.66 2.55 2.67 2.59 2.40 2.32 2.21 1.90 1.77 1.78
1.64 1.72 1.74 1.75 1.72 1.70 1.71 1.76 1.83 1.86 1.85 1.84 1.83 1.77 1.76 1.83 1.95 1.95 2.12 2.27 2.32 2.40 2.58 2.69 2.78 3.08 2.94 3.00 3.01 2.91 2.93 3.15 3.35 3.03 2.76 2.90 2.78 2.54 2.56 2.24 2.03 2.09 1.82
1.53 1.62 1.80 1.87 1.92 1.90 1.83 1.86 1.96 2.06 2.00 2.03 2.03 2.06 2.08 2.04 2.06 2.15 2.30 2.41 2.48 2.53 2.69 2.77 2.82 2.96 3.05 3.25 3.26 3.30 3.42 3.57 3.68 3.44 3.16 3.19 3.17 3.10 2.97 2.51 2.39 2.27 2.09
1.80 1.88 2.09 2.28 2.33 2.20 2.15 2.22 2.24 2.28 2.21 2.40 2.43 2.45 2.54 2.48 2.28 2.46 2.56 2.56 2.80 2.77 2.83 2.78 2.76 2.95 3.08 3.26 3.11 3.31 3.66 3.80 3.87 3.83 3.68 3.79 3.67 3.58 3.19 2.81 2.68 2.55 2.34
1.69 1.85 2.10 2.32 2.44 2.39 2.43 2.58 2.58 2.53 2.63 2.76 2.72 2.71 2.68 2.35 2.54 2.69 2.72 2.84 2.96 2.93 2.88 2.91 2.84 2.84 2.76 2.79 2.83 2.99 3.27 3.43 3.59 3.78 3.82 3.84 3.78 3.69 3.53 3.26 2.91 2.66 2.36
2.00 2.20 2.34 2.51 2.62 2.59 2.54 2.58 2.61 2.64 2.64 2.71 2.74 2.79 2.63 2.61 2.73 2.56 2.59 2.59 2.69 2.81 2.87 2.92 2.64 2.47 2.62 2.47 2.63 2.74 2.72 2.74 2.84 3.13 3.27 3.23 3.48 3.69 3.70 3.25 2.91 2.61 2.33
1.97 2.20 2.36 2.57 2.65 2.67 2.74 2.72 2.79 2.89 2.92 2.94 2.91 2.90 2.83 2.68 2.68 2.46 2.57 2.44 2.46 2.51 2.58 2.64 2.61 2.49 2.46 2.59 2.60 2.47 2.22 2.13 2.27 2.26 2.29 2.52 2.89 3.34 3.52 3.36 3.36 3.05 2.65
2.40 2.56 2.65 2.67 2.74 2.77 2.80 2.94 3.06 3.17 3.16 3.18 3.13 3.09 3.05 3.05 3.03 2.70 2.62 2.41 2.46 2.47 2.53 2.55 2.52 2.34 2.49 2.46 2.38 2.31 2.15 1.97 1.99 2.06 2.08 2.28 2.59 2.88 3.19 3.28 3.21 3.15 2.73
2.81 2.90 2.96 2.99 2.99 2.94 2.94 3.05 3.12 3.18 3.18 3.20 3.10 3.12 3.07 3.04 3.15 2.88 2.69 2.42 2.45 2.49 2.60 2.62 2.61 2.39 2.45 2.39 2.28 2.27 2.13 2.04 2.07 2.03 2.04 2.06 2.08 2.41 2.82 2.82 2.86 2.96 2.74
2.99 3.04 3.08 3.15 3.28 3.38 3.42 3.23 3.08 3.07 3.13 3.22 3.21 3.26 3.24 3.17 3.16 2.78 2.63 2.49 2.52 2.57 2.52 2.47 2.50 2.55 2.30 2.14 2.04 1.99 2.06 2.19 2.26 2.13 2.02 1.97 2.00 2.10 2.31 2.40 2.50 2.62 2.58
2.93 3.04 3.11 3.13 3.05 3.07 3.33 3.36 3.31 3.22 3.12 3.14 3.21 3.14 3.03 2.98 2.82 2.48 2.27 2.26 2.34 2.37 2.39 2.39 2.43 2.44 2.16 1.93 1.71 1.65 1.75 1.80 1.93 2.01 1.94 1.89 1.88 1.87 2.05 2.37 2.53 2.57 2.53
2.74 2.86 3.06 3.14 3.21 3.16 3.12 3.19 3.19 3.14 2.99 2.79 2.82 2.85 2.84 2.83 2.71 2.40 2.10 2.02 2.05 2.00 2.09 2.33 2.37 2.22 2.01 1.84 1.73 1.67 1.61 1.53 1.65 1.80 1.69 1.69 1.79 1.90 2.12 2.46 2.68 2.85 2.77
2.76 2.80 2.87 2.96 3.02 3.09 3.15 3.08 3.02 3.01 2.96 2.80 2.78 2.80 2.81 2.74 2.53 2.24 2.07 1.98 1.94 1.90 2.01 2.23 2.32 2.28 2.10 1.95 1.83 1.68 1.49 1.47 1.52 1.61 1.72 1.73 1.86 1.98 2.07 2.21 2.53 2.74 2.83
2.55 2.51 2.59 2.77 2.88 2.95 3.07 3.11 2.94 2.81 2.83 2.72 2.76 2.92 2.85 2.61 2.42 2.26 2.01 1.92 1.92 2.02 2.09 2.18 2.33 2.36 2.31 2.18 2.01 1.87 1.73 1.61 1.54 1.54 1.68 1.73 1.76 1.81 1.81 1.86 2.12 2.32 2.34
2.51 2.53 2.51 2.57 2.72 2.82 2.77 2.82 2.85 2.59 2.51 2.35 2.37 2.44 2.47 2.36 2.25 2.16 2.03 1.96 1.93 1.98 1.95 2.00 2.27 2.34 2.36 2.33 2.20 2.00 1.84 1.74 1.67 1.67 1.72 1.74 1.74 1.81 1.87 1.89 2.00 2.15 2.18
2.58 2.69 2.65 2.46 2.42 2.47 2.48 2.45 2.45 2.35 2.08 1.94 1.90 1.86 1.80 1.81 1.84 1.92 1.95 1.92 1.86 1.74 1.59 1.71 2.01 2.21 2.29 2.31 2.23 2.01 1.84 1.85 1.93 1.87 1.82 1.78 1.80 1.83 1.95 1.99 2.04 2.17 2.23
2.23 2.32 2.31 2.18 2.12 2.09 2.11 2.11 2.00 2.00 1.92 1.76 1.71 1.67 1.66 1.66 1.72 1.91 2.06 1.87 1.70 1.61 1.47 1.60 1.85 2.11 2.22 2.28 2.28 2.22 2.09 2.07 2.09 2.04 1.97 1.91 1.89 1.92 1.91 1.95 1.99 2.07 2.12
2.05 2.06 1.99 2.00 2.05 2.09 2.17 2.20 2.11 2.02 2.02 1.96 1.82 1.66 1.69 1.69 1.75 2.04 2.12 1.71 1.57 1.62 1.65 1.66 1.75 1.94 2.13 2.24 2.27 2.28 2.26 2.26 2.26 2.25 2.17 2.11 2.07 2.09 2.01 1.91 1.92 2.03 2.04
1.96 2.10 2.04 1.92 1.94 2.11 2.23 2.21 2.24 2.29 2.22 2.26 2.23 1.92 1.74 1.67 1.59 1.85 1.98 1.83 1.77 1.75 1.74 1.74 1.80 1.94 2.12 2.27 2.32 2.32 2.37 2.33 2.30 2.26 2.20 2.14 2.08 2.08 2.07 2.03 2.04 2.09 2.03
1.91 1.96 1.99 1.89 1.92 2.04 2.14 2.24 2.23 2.27 2.34 2.35 2.32 2.12 1.90 1.65 1.69 1.89 2.09 2.04 1.97 1.96 1.93 1.93 1.99 2.12 2.20 2.27 2.25 2.17 2.15 2.20 2.17 2.13 2.10 2.08 2.03 2.00 2.03 2.09 2.09 2.14 2.12
1.89 1.89 1.91 1.95 1.99 2.05 2.09 2.22 2.37 2.40 2.40 2.45 2.31 2.22 2.12 1.85 1.81 1.94 2.06 2.07 2.09 2.07 2.03 2.04 2.12 2.19 2.24 2.25 2.21 2.15 2.11 2.12 2.12 2.10 2.12 2.11 2.13 2.12 2.16 2.15 2.15 2.21 2.22
1.69 1.77 1.89 1.94 1.96 2.00 2.04 2.10 2.19 2.24 2.29 2.33 2.19 2.14 2.05 1.98 1.89 1.89 1.98 2.00 1.98 1.98 1.94 2.00 2.05 2.04 2.04 2.10 2.09 2.08 2.08 2.04 2.03 2.08 2.16 2.19 2.22 2.21 2.18 2.12 2.07 2.11 2.14
1.33 1.41 1.46 1.56 1.68 1.77 1.83 1.93 1.91 1.88 1.93 2.00 1.93 1.91 1.85 1.82 1.75 1.73 1.76 1.78 1.81 1.85 1.84 1.82 1.84 1.87 1.80 1.78 1.81 1.84 1.79 1.82 1.85 1.92 1.99 2.09 2.13 2.20 2.22 2.17 2.15 2.15 2.17
1.33 1.33 1.31 1.39 1.45 1.55 1.64 1.71 1.78 1.81 1.78 1.75 1.74 1.71 1.67 1.64 1.64 1.66 1.64 1.63 1.61 1.60 1.54 1.54 1.59 1.62 1.62 1.53 1.45 1.45 1.54 1.56 1.56 1.64 1.68 1.80 1.91 2.01 2.10 2.15 2.21 2.26 2.26
1.26 1.31 1.31 1.35 1.39 1.44 1.52 1.58 1.66 1.66 1.63 1.56 1.55 1.57 1.61 1.59 1.56 1.52 1.45 1.43 1.46 1.47 1.45 1.42 1.39 1.40 1.39 1.35 1.34 1.39 1.38 1.28 1.32 1.48 1.49 1.55 1.71 1.81 1.89 1.98 2.00 2.07 2.13